Regional Weather Roundup
Issued by NWS Boston, MA

Current Version | Previous Version | Text Only | Print | Product List | Glossary Off
Versions: 1 2 3 4 5 6 7 8 9 10 11 12 13 14 15 16 17 18 19 20 21 22 23 24 25 26 27
000 ASUS41 KBOX 171710 RWRBOX REGIONAL WEATHER ROUNDUP NATIONAL WEATHER SERVICE TAUNTON MA 100 PM EDT THU AUG 17 2017 NOTE: "FAIR" INDICATES FEW OR NO CLOUDS BELOW 12,000 FEET WITH NO SIGNIFICANT WEATHER AND/OR OBSTRUCTIONS TO VISIBILITY. MAZALL-171800- EASTERN MASSACHUSETTS CITY SKY/WX TMP DP RH WIND PRES REMARKS BOSTON MOSUNNY 78 48 34 SW8 30.02F BEVERLY MOSUNNY 79 51 37 SW10G17 30.01F LAWRENCE SUNNY 81 51 35 NW9G20 30.04F BEDFORD MOSUNNY 78 50 37 W7 30.02F BLUE HILL N/A 77 47 34 VRB5 30.04F NORWOOD SUNNY 79 50 36 SW5 30.03F MARSHFIELD SUNNY 77 50 38 E8 30.03F PLYMOUTH SUNNY 79 43 27 MISG 30.04F TAUNTON SUNNY 80 48 32 VRB5 30.03F NEW BEDFORD SUNNY 78 49 35 CALM 30.03F $$ MAZALL-171800- CAPE COD AND THE ISLANDS CITY SKY/WX TMP DP RH WIND PRES REMARKS FALMOUTH MOSUNNY 75 54 46 CALM 30.04F HYANNIS SUNNY 77 47 34 N5 30.03F CHATHAM MOSUNNY 77 60 55 S5 30.05F PROVINCETOWN SUNNY 75 53 46 W6 30.05F NANTUCKET CLOUDY 71 58 63 S8 30.05S MARTHAS VNYRD SUNNY 77 60 55 SE8 30.04 $$ MAZALL-171800- CENTRAL AND WESTERN MASSACHUSETTS CITY SKY/WX TMP DP RH WIND PRES REMARKS WORCESTER SUNNY 74 44 34 NW7 30.07F FITCHBURG SUNNY 80 48 32 SW8 30.05F ORANGE SUNNY 76 48 37 VRB3 30.05F SPRINGFIELD PTSUNNY 76 48 36 N3 30.04F WESTFIELD SUNNY 77 50 38 SW7 30.05F NORTH ADAMS SUNNY 74 51 44 NW5 30.06F PITTSFIELD SUNNY 74 49 41 W5 30.06F $$ RIZALL-171800- RHODE ISLAND CITY SKY/WX TMP DP RH WIND PRES REMARKS PROVIDENCE PTSUNNY 77 50 38 VRB3 30.05F NEWPORT SUNNY 76 53 44 W5 30.05F BLOCK ISLAND SUNNY 74 49 41 E7 30.07F WESTERLY SUNNY 75 52 44 SE10 30.06F $$ CTZALL-171800- CONNECTICUT CITY SKY/WX TMP DP RH WIND PRES REMARKS BRADLEY INTL PTSUNNY 77 50 38 CALM 30.06F HARTFORD SUNNY 77 51 40 MISG 30.05F BRIDGEPORT SUNNY 74 54 49 E8 30.06F DANBURY PTSUNNY 79 60 52 VRB3 30.07F GROTON SUNNY 73 56 54 S12 30.05F NEW HAVEN SUNNY 75 57 53 S9 30.07F CHESTER NOT AVBL MERIDEN SUNNY 77 52 41 VRB3 30.05F WILLIMANTIC SUNNY 78 50 37 W8 30.05F OXFORD MOSUNNY 76 56 49 VRB3 30.08F $$ MEZ002-015-021-024-NHZ003-005-008-011-012-014-VTZ005-008-171800- NORTHERN NEW ENGLAND CITY SKY/WX TMP DP RH WIND PRES REMARKS PORTLAND ME PTSUNNY 77 49 37 W9 29.98F BANGOR ME MOSUNNY 76 42 29 NW18G25 29.92F CONCORD NH SUNNY 79 52 38 W10 30.02F MANCHESTER NH PTSUNNY 79 48 33 W8 30.01F NASHUA NH SUNNY 78 51 38 NW13 30.02F PORTSMOUTH NH PTSUNNY 79 52 38 W10G20 29.99F JAFFREY NH SUNNY 76 47 35 VRB3 30.06F KEENE NH N/A N/A N/A N/A MISG N/A BURLINGTON VT MOSUNNY 77 53 43 W3 30.03F MT. WASHINGTON FOG 43 43 100 W46G58 N/A VSB 0 WCI 30 $$ NYZ052-076-171800- EASTERN NEW YORK CITY SKY/WX TMP DP RH WIND PRES REMARKS ALBANY MOSUNNY 76 51 41 VRB5 30.05F NEW YORK CITY MOSUNNY 79 65 62 NE12 30.04F $$ ANZALL-171800- MARINE OBSERVATIONS STATION/POSITION TIME TEMP WIND PRES VSBY WAVE AIR SEA DIR/SP/G HT/PER (UTC) (F) (DEG/KT/KT) (MB) (MI) (FT/S) BOSTON BUOY 1650 69 68 210/ 6/ 8 1016.6F 1/11 BUZZARDS BAY 1600 68 130/ 2/ 3 1018.3F NANTUCKET SOUND 1650 69 71 180/ 2/ 2 1017.6F 1/ 4 MASS BAY-STELLWA 1604 68 68 220/ 12/ 12 1016.3F 2/11 ISLE OF SHOALS 1600 70 250/ 10/ 11 1016.1F S OF BLOCK IS NOT AVBL $$ ......................KEY......................... SKY/WX - SKY CONDITION/PRESENT WEATHER TMP - TEMPERATURE IN FAHRENHEIT DWPT - DEWPOINT IN FAHRENHEIT RH - RELATIVE HUMIDITY IN PERCENT WIND - DIRECTION AND SPEED IN MPH PRES - MEAN SEA LEVEL PRESSURE IN INCHES OF HG WCI - WIND CHILL INDEX VSB - VISIBILITY IN MILES HX - HEAT INDEX TC - TEMPERATURE IN CELSIUS VRB - VARIABLE WIND DIRECTION N/A - NOT AVAILABLE

USA.gov is the U.S. government's official web portal to all federal, state and local government web resources and services.